Погода в Коршуновке

Россия / Тамбовская область     53°06′40″N   42°03′53″E
темп.,
°C
ветер,
м/с
пор.,
м/с
влажн.,
%
обл.,
%
осадки,
мм/ч
давл.,
гПа
погр.,
м
27 сентября, пн
пн2700:00+9ссз489598 0.2 1007447
03:00+9с51293100 0.4 1009575
06:00+9с61293100 0.1 1011674
09:00+9с6118898 0.3 1013670
12:00+11с797263 0.1 1015733
15:00+12ссз587181 0.1 10151003
18:00+10с5982100 0.1 1016636
21:00+9с4889100 0.4 1017598
28 сентября, вт
вт2800:00+8ссв5785100 0.3 1019881
03:00+6ссв5786100 0.4 1020844
06:00+5ссв5894100 0.1 1022928
09:00+6св6882100 0.4 1024953
12:00+6св6872100 0.0 10261065
15:00+7св6764100 0.1 10271343
18:00+7всв376523 0.0 1029482
21:00+4ссв35775 0.0 103087
29 сентября, ср
ср2900:00+3ссв36795 0.0 1031116
03:00+2ссв358228 0.0 1031106
06:00+1с37852 0.0 1032159
09:00+6ссв48645 0.0 1033485
12:00+9св464914 0.0 10321175
15:00+10св45455 0.0 10321429
18:00+7св335927 0.0 103242
21:00+6ссв226478 0.0 103319
30 сентября, чт
чт3000:00+5ссв226958 0.0 103412
03:00+3ссз227426 0.0 103415
06:00+3с227788 0.0 103514
09:00+6с126397 0.0 1036223
12:00+9ссв2255100 0.0 1035524
15:00+10с23505 0.0 1035924
18:00+7св11635 0.0 103511
21:00+6зюз116799 0.0 103511
1 октября, пт
пт100:00+7з2367100 0.0 103664
03:00+7зсз2369100 0.0 103687
06:00+5ссз238322 0.0 103656
09:00+9ссз346498 0.0 1037275
12:00+12ссз345473 0.0 1036862
15:00+14ссз33517 0.0 10351263
18:00+10ссз22655 0.0 103510
21:00+8сз22725 0.0 103618